Other Public Products
Issued by NWS Charleston, SC

Current Version | Previous Version | Text Only | Print | Product List | Glossary Off
Versions: 1 2 3 4 5 6 7 8 9 10 11 12 13 14 15 16 17 18 19 20 21 22 23 24 25 26 27 28 29 30 31 32 33 34 35 36 37 38 39 40 41 42 43 44 45 46 47 48 49 50
996 FPUS82 KCHS 211312 OPUCHS TEST...KCHS/KSAV Gateway Observations...TEST National Weather Service Charleston SC 900 AM EDT FRI JUL 21 2017 NOTE: "fair" indicates few or no clouds below 12,000 feet with no significant weather and/or obstructions to visibility. SCZ050-WAZ558-NCZ071-TXZ119-213-PAZ071-DCZ001-FLZ074-172-MI076- NYZ176-178-MAZ016-IL014-TNZ027-NJZ106-GAZ044-MD014-211400- ...Gateway Observations for Charleston International... CITY SKY/WX TMP DP RH WIND PRES REMARKS Chas Airport MOSUNNY 81 69 67 W7 30.06R Seattle MOCLDY 56 53 90 S3 30.14S Charlotte MOSUNNY 83 72 69 N3 30.06R Dallas DFW MOSUNNY 84 74 71 S10 30.01R HX 91 Dallas Love MOSUNNY 83 72 69 S8 30.03R Philladelphia PTSUNNY 82 69 64 N8 29.95R Wash National PTSUNNY 88 72 58 N12 29.98R HX 94 Baltimore MOSUNNY 85 71 63 VRB6 29.96R HX 90 Miami PTSUNNY 87 76 69 SE6 30.08R HX 97 Detroit CLOUDY 78 69 73 NE7 30.00S Newark PTSUNNY 83 69 62 W7 29.92R Laguardia MOSUNNY 82 70 66 NW9 29.91R J F K PTSUNNY 85 69 58 NW12 29.93R Boston Logan MOSUNNY 79 60 52 W10 29.85S Ft. Lauderdale MOSUNNY 86 78 77 CALM 30.07R HX 98 Chicago O`Hare CLOUDY 79 69 71 E3 29.98R Chicago Midway CLOUDY 80 70 71 E7 29.96S Houston Bush MOSUNNY 82 77 84 CALM 30.05R HX 90 Houston Hobby MOSUNNY 84 75 74 CALM 30.04R HX 92 Nashville CLOUDY 82 74 76 CALM 30.09R HAZE Atlanta MOSUNNY 80 74 81 NW7 30.08R $$ GAZ044-118-TXZ119-213-NCZ071-DCZ001-MDZ014-506-PAZ021-071-NJZ106- NYZ176-178-MAZ106-OHZ011-021-055-MIZ076-KYZ091-ILZ014-INZ047- MNZ060-ONZ431-211400- ...Gateway Observations for Savannah International... CITY SKY/WX TMP DP RH WIND PRES REMARKS Savannah Arpt SUNNY 80 73 79 W5 30.07R Atlanta MOSUNNY 80 74 81 NW7 30.08R Charlotte MOSUNNY 83 72 69 N3 30.06R Dallas DFW MOSUNNY 84 74 71 S10 30.01R HX 91 Houston Bush MOSUNNY 82 77 84 CALM 30.05R HX 90 Wash National PTSUNNY 88 72 58 N12 29.98R HX 94 Wash Dulles PTSUNNY 85 70 60 NW9 29.99R Baltimore MOSUNNY 85 71 63 VRB6 29.96R HX 90 Philadelphia PTSUNNY 82 69 64 N8 29.95R Newark PTSUNNY 83 69 62 W7 29.92R Laguardia MOSUNNY 82 70 66 NW9 29.91R J F K PTSUNNY 85 69 58 NW12 29.93R Boston MOSUNNY 79 60 52 W10 29.85S Pittsburg CLOUDY 76 73 91 CALM 30.02R Akron CLOUDY 81 71 71 N3 30.01S Cleveland CLOUDY 80 73 79 W3 30.01R Cincinnati LGT RAIN 73 72 96 NE7 30.07S Columbus CLOUDY 78 75 91 SW7 29.99S Detroit CLOUDY 78 69 73 NE7 30.00S Chicago O`Hare CLOUDY 79 69 71 E3 29.98R Minneapolis CLOUDY 73 67 81 SE9 29.91R Indianapolis CLOUDY 73 70 90 SE3 30.01F Toronto Canada MOSUNNY 75 64 69 NW6 29.95R $$

USA.gov is the U.S. government's official web portal to all federal, state and local government web resources and services.